Location: Asheville, NC
(35.6000°N, 82.5500°W)
Time: 13:33:37
(UTC-05:00)

CUTE-I - Pass Details

Date: 12 February 2018
Orbit: 811 x 825 km, 98.7° (Epoch: 21 February)

Event Time Altitude Azimuth Distance (km) Brightness Sun altitude
Rises 18:44:20 0° 187° (S) 3,313 ? -7.8°
Reaches altitude 10° 18:46:50 10° 196° (SSW) 2,386 ? -8.3°
Maximum altitude 18:51:39 36° 262° (W) 1,263 ? -9.2°
Drops below altitude 10° 18:56:31 10° 328° (NNW) 2,402 ? -10.2°
Sets 18:59:04 0° 337° (NNW) 3,339 ? -10.7°
